Weather History for Show Low, AZ

Change the Weather History Date:

Wednesday, October 3, 2012

  Actual Average Record
Temperature  
Mean Temperature 66 °F -  
Max Temperature 80 °F 70 °F 84 °F (1980)
Min Temperature 53 °F 47 °F 31 °F (1971)
Cooling Degree Days 2    
Growing Degree Days 16 (Base 50)    
Moisture  
Dew Point 24 °F    
Average Humidity 21    
Maximum Humidity 33    
Minimum Humidity 10    
Precipitation  
Precipitation 0.00 in - - ()
Sea Level Pressure  
Sea Level Pressure 30.25 in    
Wind  
Wind Speed 10 mph (SSW)    
Max Wind Speed 18 mph    
Max Gust Speed 24 mph    
Visibility 10 miles    
Events      
Averages and records for this station are not official NWS values.
T = Trace of Precipitation, MM = Missing Value Source: NWS Daily Summary

Daily Weather History Graph

Daily Weather History Graph

Search for Another Location

Airport:

Trip Planner

Search our weather history database for the weather conditions in past years. The results will help you decide how hot, cold, wet, or windy it might be!

Date:

Astronomy

Oct. 03, 2012 Rise Set
Actual Time 6:16 AM MST 6:00 PM MST
Civil Twilight 5:51 AM MST 6:25 PM MST
Nautical Twilight 5:22 AM MST 6:54 PM MST
Astronomical Twilight 4:53 AM MST 7:23 PM MST
Moon 8:06 PM MST (10/3) 9:32 AM MST (10/3)
Length of Visible Light 12h 34m
Length of Day
11h 44m
Waning Gibbous, 88% of the Moon is Illuminated
Oct 3
Waning Gibbous
Oct 8
Last Quarter
Oct 15
New
Oct 21
First Quarter
Oct 29
Full

Hourly Weather History & Observations

Time (MST) Temp. Dew Point Humidity Pressure Visibility Wind Dir Wind Speed Gust Speed Precip Events Conditions
12:15 AM 59.0 °F 24.8 °F 27% 30.21 in 10.0 mi South 8.1 mph - N/A   Clear
12:35 AM 59.0 °F 24.8 °F 27% 30.21 in 10.0 mi South 10.4 mph - N/A   Clear
12:55 AM 59.0 °F 24.8 °F 27% 30.22 in 10.0 mi South 9.2 mph - N/A   Clear
1:15 AM 59.0 °F 24.8 °F 27% 30.22 in 10.0 mi SSW 8.1 mph - N/A   Clear
1:35 AM 57.2 °F 24.8 °F 29% 30.22 in 10.0 mi SSW 6.9 mph - N/A   Clear
1:55 AM 57.2 °F 24.8 °F 29% 30.22 in 10.0 mi South 10.4 mph - N/A   Clear
2:15 AM 57.2 °F 24.8 °F 29% 30.21 in 10.0 mi South 8.1 mph - N/A   Clear
2:35 AM 57.2 °F 24.8 °F 29% 30.21 in 10.0 mi SSW 8.1 mph - N/A   Clear
2:55 AM 57.2 °F 24.8 °F 29% 30.21 in 10.0 mi SSW 6.9 mph - N/A   Clear
3:15 AM 57.2 °F 24.8 °F 29% 30.21 in 10.0 mi South 9.2 mph - N/A   Clear
3:35 AM 55.4 °F 24.8 °F 31% 30.21 in 10.0 mi SSW 6.9 mph - N/A   Clear
3:55 AM 55.4 °F 24.8 °F 31% 30.22 in 10.0 mi SSW 6.9 mph - N/A   Clear
4:15 AM 53.6 °F 24.8 °F 33% 30.22 in 10.0 mi South 9.2 mph - N/A   Clear
4:35 AM 55.4 °F 24.8 °F 31% 30.23 in 10.0 mi South 8.1 mph - N/A   Clear
4:55 AM 55.4 °F 24.8 °F 31% 30.22 in 10.0 mi South 9.2 mph - N/A   Clear
5:15 AM 55.4 °F 24.8 °F 31% 30.22 in 10.0 mi South 9.2 mph - N/A   Clear
5:35 AM 55.4 °F 24.8 °F 31% 30.22 in 10.0 mi South 11.5 mph - N/A   Clear
5:55 AM 55.4 °F 24.8 °F 31% 30.22 in 10.0 mi South 10.4 mph - N/A   Clear
6:15 AM 55.4 °F 24.8 °F 31% 30.23 in 10.0 mi South 9.2 mph - N/A   Clear
6:35 AM 55.4 °F 24.8 °F 31% 30.23 in 10.0 mi South 9.2 mph - N/A   Clear
6:55 AM 57.2 °F 24.8 °F 29% 30.24 in 10.0 mi SSW 6.9 mph - N/A   Clear
7:15 AM 59.0 °F 24.8 °F 27% 30.24 in 10.0 mi SSW 9.2 mph - N/A   Clear
7:35 AM 62.6 °F 24.8 °F 24% 30.25 in 10.0 mi SSW 10.4 mph - N/A   Clear
7:55 AM 64.4 °F 26.6 °F 24% 30.26 in 10.0 mi SSW 10.4 mph - N/A   Clear
8:15 AM 66.2 °F 26.6 °F 23% 30.27 in 10.0 mi SSW 10.4 mph - N/A   Clear
8:35 AM 66.2 °F 26.6 °F 23% 30.27 in 10.0 mi South 10.4 mph - N/A   Clear
8:55 AM 68.0 °F 26.6 °F 21% 30.27 in 10.0 mi SSW 9.2 mph - N/A   Clear
9:15 AM 71.6 °F 26.6 °F 19% 30.28 in 10.0 mi SW 6.9 mph - N/A   Clear
9:35 AM 73.4 °F 26.6 °F 18% 30.27 in 10.0 mi SW 5.8 mph - N/A   Clear
9:55 AM 73.4 °F 24.8 °F 16% 30.27 in 10.0 mi SW 11.5 mph - N/A   Clear
10:15 AM 75.2 °F 24.8 °F 15% 30.27 in 10.0 mi SW 11.5 mph - N/A   Clear
10:35 AM 75.2 °F 23.0 °F 14% 30.27 in 10.0 mi WSW 8.1 mph - N/A   Clear
10:55 AM 77.0 °F 23.0 °F 13% 30.27 in 10.0 mi SW 6.9 mph 17.3 mph N/A   Clear
11:15 AM 77.0 °F 19.4 °F 12% 30.27 in 10.0 mi West 12.7 mph 17.3 mph N/A   Clear
11:35 AM 77.0 °F 17.6 °F 11% 30.26 in 9.0 mi NW 12.7 mph 20.7 mph N/A   Clear
11:55 AM 78.8 °F 17.6 °F 10% 30.26 in 10.0 mi WNW 13.8 mph 18.4 mph N/A   Clear
12:15 PM 77.0 °F 17.6 °F 11% 30.25 in 10.0 mi North 5.8 mph - N/A   Clear
12:35 PM 78.8 °F 19.4 °F 11% 30.24 in 10.0 mi NW 13.8 mph 18.4 mph N/A   Clear
12:55 PM 78.8 °F 23.0 °F 13% 30.23 in 10.0 mi SSW 8.1 mph - N/A   Clear
1:15 PM 80.6 °F 24.8 °F 13% 30.22 in 10.0 mi SW 13.8 mph 19.6 mph N/A   Clear
1:35 PM 80.6 °F 23.0 °F 12% 30.22 in 10.0 mi SW 18.4 mph 21.9 mph N/A   Clear
1:55 PM 78.8 °F 23.0 °F 13% 30.22 in 10.0 mi WSW 12.7 mph - N/A   Clear
2:15 PM 80.6 °F 23.0 °F 12% 30.21 in 10.0 mi WSW 9.2 mph 16.1 mph N/A   Clear
2:35 PM 80.6 °F 21.2 °F 11% 30.21 in 10.0 mi West 12.7 mph 18.4 mph N/A   Clear
2:55 PM 80.6 °F 21.2 °F 11% 30.21 in 10.0 mi SW 17.3 mph 24.2 mph N/A   Clear
3:15 PM 80.6 °F 21.2 °F 11% 30.22 in 10.0 mi WSW 10.4 mph 24.2 mph N/A   Clear
3:35 PM 78.8 °F 21.2 °F 12% 30.22 in 10.0 mi WSW 15.0 mph 21.9 mph N/A   Clear
3:55 PM 78.8 °F 21.2 °F 12% 30.22 in 10.0 mi WSW 15.0 mph 24.2 mph N/A   Clear
4:15 PM 77.0 °F 21.2 °F 12% 30.23 in 10.0 mi WSW 16.1 mph 21.9 mph N/A   Clear
4:35 PM 77.0 °F 21.2 °F 12% 30.23 in 10.0 mi WSW 12.7 mph 19.6 mph N/A   Clear
4:55 PM 75.2 °F 21.2 °F 13% 30.23 in 10.0 mi WSW 15.0 mph 19.6 mph N/A   Clear
5:15 PM 75.2 °F 23.0 °F 14% 30.24 in 10.0 mi WSW 13.8 mph - N/A   Clear
5:35 PM 73.4 °F 23.0 °F 15% 30.24 in 10.0 mi WSW 10.4 mph - N/A   Clear
5:55 PM 71.6 °F 23.0 °F 16% 30.25 in 10.0 mi WSW 10.4 mph - N/A   Clear
6:15 PM 68.0 °F 23.0 °F 18% 30.25 in 10.0 mi SW 8.1 mph - N/A   Clear
6:35 PM 68.0 °F 23.0 °F 18% 30.25 in 10.0 mi SW 10.4 mph - N/A   Clear
6:55 PM 66.2 °F 23.0 °F 19% 30.26 in 10.0 mi SSW 8.1 mph - N/A   Clear
7:15 PM 64.4 °F 23.0 °F 21% 30.26 in 10.0 mi South 6.9 mph - N/A   Clear
7:35 PM 62.6 °F 24.8 °F 24% 30.27 in 10.0 mi South 8.1 mph - N/A   Clear
7:55 PM 62.6 °F 24.8 °F 24% 30.28 in 10.0 mi South 9.2 mph - N/A   Clear
8:15 PM 62.6 °F 24.8 °F 24% 30.28 in 10.0 mi South 9.2 mph - N/A   Clear
8:35 PM 62.6 °F 24.8 °F 24% 30.28 in 10.0 mi South 12.7 mph - N/A   Clear
8:55 PM 60.8 °F 24.8 °F 25% 30.29 in 10.0 mi South 11.5 mph - N/A   Clear
9:15 PM 60.8 °F 23.0 °F 23% 30.29 in 10.0 mi South 11.5 mph - N/A   Clear
9:35 PM 59.0 °F 23.0 °F 25% 30.30 in 10.0 mi South 11.5 mph - N/A   Clear
9:55 PM 59.0 °F 23.0 °F 25% 30.30 in 10.0 mi South 10.4 mph - N/A   Clear
10:15 PM 59.0 °F 23.0 °F 25% 30.30 in 10.0 mi South 12.7 mph - N/A   Clear
10:35 PM 59.0 °F 23.0 °F 25% 30.31 in 10.0 mi South 10.4 mph - N/A   Clear
10:55 PM 59.0 °F 23.0 °F 25% 30.31 in 10.0 mi South 10.4 mph - N/A   Clear
11:15 PM 59.0 °F 23.0 °F 25% 30.31 in 10.0 mi South 10.4 mph - N/A   Clear
11:35 PM 59.0 °F 23.0 °F 25% 30.31 in 10.0 mi South 10.4 mph - N/A   Clear
11:55 PM 59.0 °F 23.0 °F 25% 30.31 in 10.0 mi South 10.4 mph - N/A   Clear